Pullman, WA

5:19 AM PDT on October 21, 2017 (GMT -0700)
Pullman-Moscow Regional

Weather History for KPUW - June, 2014

Change the Weather History Date:

Sunday, June 29, 2014

  Actual Average Record
Temperature  
Mean Temperature 58 °F 62 °F  
Max Temperature 70 °F 76 °F 95 °F (2008)
Min Temperature 45 °F 47 °F 35 °F (1959)
Degree Days  
Heating Degree Days 7 5  
Month to date heating degree days 198 202  
Since 1 June heating degree days 198 202  
Since 1 July heating degree days 6638 6602  
Cooling Degree Days 0 1  
Month to date cooling degree days 1 8  
Year to date cooling degree days 2 13  
Since 1 June cooling degree days 1 8  
Growing Degree Days 10 (Base 50)    
Moisture  
Dew Point 44 °F    
Average Humidity 58    
Maximum Humidity 82    
Minimum Humidity 33    
Precipitation  
Precipitation 0.00 in 0.04 in 0.73 in (1952)
Month to date precipitation 0.93 1.05  
Year to date precipitation 10.61 9.56  
Sea Level Pressure  
Sea Level Pressure 30.08 in    
Wind  
Wind Speed 10 mph (WSW)    
Max Wind Speed 23 mph    
Max Gust Speed 29 mph    
Visibility 10 miles    
Events      
T = Trace of Precipitation, MM = Missing Value Source: NWS Daily Summary

Daily Weather History Graph

Daily Weather History Graph

Search for Another Location

Airport or City:

Trip Planner

Search our weather history database for the weather conditions in past years. The results will help you decide how hot, cold, wet, or windy it might be!

Date:

Astronomy

Jun. 29, 2014 Rise Set
Actual Time 4:57 AM PDT 8:46 PM PDT
Civil Twilight 4:18 AM PDT 9:25 PM PDT
Nautical Twilight 3:24 AM PDT 10:18 PM PDT
Astronomical Twilight 2:07 AM PDT 11:35 PM PDT
Moon 7:30 AM PDT (6/29) 9:56 PM PDT (6/29)
Length of Visible Light 17h 07m
Length of Day
15h 48m
Waxing Crescent, 6% of the Moon is Illuminated
Jun 29
Waxing Crescent
Jul 5
First Quarter
Jul 12
Full
Jul 18
Last Quarter
Jul 26
New

Hourly Weather History & Observations

Time (PDT) Temp. Dew Point Humidity Pressure Visibility Wind Dir Wind Speed Gust Speed Precip Events Conditions
1:53 AM 57.0 °F 45.0 °F 64% 29.98 in 10.0 mi WSW 10.4 mph - N/A   Partly Cloudy
2:53 AM 57.0 °F 45.0 °F 64% 30.00 in 10.0 mi WSW 17.3 mph - N/A   Clear
3:53 AM 55.9 °F 46.0 °F 69% 30.01 in 10.0 mi WSW 11.5 mph - N/A   Mostly Cloudy
4:53 AM 55.9 °F 46.0 °F 69% 30.02 in 10.0 mi WSW 10.4 mph - N/A   Overcast
5:53 AM 57.0 °F 46.9 °F 69% 30.04 in 10.0 mi WSW 13.8 mph - N/A   Overcast
6:53 AM 55.9 °F 46.9 °F 72% 30.05 in 10.0 mi WSW 9.2 mph - N/A   Clear
7:53 AM 57.0 °F 46.0 °F 67% 30.07 in 10.0 mi WSW 13.8 mph 19.6 mph N/A   Partly Cloudy
8:53 AM 59.0 °F 46.0 °F 62% 30.09 in 10.0 mi WSW 15.0 mph - N/A   Overcast
9:53 AM 62.1 °F 46.0 °F 56% 30.09 in 10.0 mi West 12.7 mph - N/A   Overcast
10:53 AM 63.0 °F 45.0 °F 52% 30.10 in 10.0 mi West 9.2 mph 19.6 mph N/A   Mostly Cloudy
11:53 AM 64.0 °F 45.0 °F 50% 30.10 in 10.0 mi West 11.5 mph - N/A   Mostly Cloudy
12:53 PM 66.0 °F 46.0 °F 48% 30.10 in 10.0 mi West 10.4 mph 21.9 mph N/A   Mostly Cloudy
1:53 PM 68.0 °F 43.0 °F 40% 30.09 in 10.0 mi WSW 12.7 mph 24.2 mph N/A   Partly Cloudy
2:53 PM 66.9 °F 41.0 °F 39% 30.08 in 10.0 mi West 13.8 mph 24.2 mph N/A   Scattered Clouds
3:53 PM 70.0 °F 41.0 °F 35% 30.08 in 10.0 mi WSW 17.3 mph 23.0 mph N/A   Scattered Clouds
4:53 PM 69.1 °F 39.9 °F 35% 30.08 in 10.0 mi West 13.8 mph - N/A   Clear
5:53 PM 69.1 °F 41.0 °F 36% 30.08 in 10.0 mi WSW 13.8 mph 17.3 mph N/A   Clear
6:53 PM 68.0 °F 41.0 °F 37% 30.08 in 10.0 mi WSW 15.0 mph 18.4 mph N/A   Clear
7:53 PM 64.9 °F 41.0 °F 42% 30.09 in 10.0 mi SW 8.1 mph - N/A   Clear
8:53 PM 60.1 °F 42.1 °F 51% 30.10 in 10.0 mi SW 5.8 mph - N/A   Clear
9:53 PM 57.0 °F 42.1 °F 57% 30.12 in 10.0 mi Calm Calm - N/A   Clear
10:53 PM 51.1 °F 42.1 °F 71% 30.14 in 10.0 mi Calm Calm - N/A   Clear
11:53 PM 46.9 °F 41.0 °F 80% 30.15 in 10.0 mi Calm Calm - N/A   Clear